Simultaneous Nadir Overpasses (SNOs) Predictions

Prediction of SNOs between AQUA and GOES-15 Satellite Orbit:

Table of predicted SNOs for the next 14.0 days since TLE Epoch: 6/5/2021
Index Date Time (AQUA) AQUA Lat,Lon GOES-15 Lat,Lon Distance(km) Time Diff (sec)
1 06/06/2021 10:06:58 -0.05,-127.89 0.06,-128.51 69.95 80
2 06/08/2021 09:54:47 -0.69,-124.94 0.06,-128.52 406.54 80
3 06/08/2021 22:16:11 -0.42,-130.13 -0.05,-128.44 191.96 80
4 06/10/2021 22:04:00 0.23,-127.18 -0.05,-128.44 143.94 80
5 06/11/2021 10:25:16 0.86,-132.34 0.04,-128.52 434.14 80
6 06/12/2021 21:51:48 0.82,-124.21 -0.05,-128.43 479.33 80
7 06/13/2021 10:13:05 0.21,-129.39 0.04,-128.51 99.07 80
8 06/15/2021 10:00:53 -0.38,-126.42 0.05,-128.50 235.72 80
9 06/15/2021 22:22:17 -0.71,-131.61 -0.04,-128.41 364.12 80
10 06/17/2021 22:10:05 -0.11,-128.65 -0.05,-128.39 29.60 80
